Regional Weather Roundup
Issued by NWS

Home | Current Version | Previous Version | Text Only | Print | Product List | Glossary On
Versions: 1 2 3 4 5 6 7 8 9 10 11 12 13 14 15 16 17 18 19 20 21 22 23 24 25 26 27 28 29 30 31 32 33 34 35 36 37 38 39 40 41 42 43 44 45 46 47 48 49 50
000
ASUS43 KMPX 241801
RWRMN
WEATHER ROUNDUP FOR MINNESOTA
NATIONAL WEATHER SERVICE TWIN CITIES/CHANHASSEN MN
100 PM CDT SAT JUN 24 2017


NOTE: "FAIR" INDICATES FEW OR NO CLOUDS BELOW 12,000 FEET WITH NO
SIGNIFICANT WEATHER AND/OR OBSTRUCTIONS TO VISIBILITY. N/A MEANS
CURRENT SKY AND/OR WEATHER CONDITIONS ARE NOT AVAILABLE.

MNZ060>063-068>070-241900-
   Twin Cities Metro

CITY           SKY/WX    TMP DP  RH WIND       PRES   REMARKS
TWIN CITIES    CLOUDY    63  40  42 W16G26    30.02S
6HR MIN TEMP:  55; 6HR MAX TEMP:  65;

ST PAUL        CLOUDY    64  44  48 W20       30.01F
CRYSTAL        CLOUDY    64  41  42 SW17G25   30.00S
BLAINE         PTSUNNY   63  43  48 W14G21    30.00S
LAKEVILLE      CLOUDY    61  43  51 W13G21    30.04S
EDEN PRAIRIE   PTSUNNY   62  41  46 W13G21    30.02F
6HR MIN TEMP:  55; 6HR MAX TEMP:  65; 6HR PCP: TRACE;

SOUTH ST PAUL  CLOUDY    63  41  43 W15G21    30.01F
LAKE ELMO      FAIR      63  43  48 W13       30.02S
$$
MNZ001>005-007-008-013>017-022>024-027-028-241900-
   Northwest Minnesota

CITY           SKY/WX    TMP DP  RH WIND       PRES   REMARKS
BEMIDJI        PTSUNNY   59  47  63 W10G22    29.99R
HALLOCK        CLOUDY    55  54  94 NW17G23   29.99R FOG
ROSEAU         PTSUNNY   57  52  82 W9        29.97S
WARROAD        CLOUDY    55  50  82 SW5       29.98R
CROOKSTON      CLOUDY    55  50  82 NW17      30.03S
FOSSTON        CLOUDY    55  45  67 W12       30.02R
DETROIT LAKES  MOSUNNY   54  48  82 NW13      30.04F
MOORHEAD       MOSUNNY   61  45  55 NW16G22   30.05S
PARK RAPIDS    CLOUDY    61  42  49 NW18G24   30.00R
MAHNOMEN       MOCLDY    58  45  62 W20G25    30.02S
$$
MNZ006-009>011-018-025>026-241900-
   North Central Minnesota

CITY           SKY/WX    TMP DP  RH WIND       PRES   REMARKS
BAUDETTE       MOSUNNY   60  50  69 NW12      29.96R
FLAG ISLAND    CLOUDY    55  48  76 NW8       29.94S
INTL FALLS     CLOUDY    60  46  59 NW10      29.93S
6HR MIN TEMP:  52; 6HR MAX TEMP:  62;

WASKISH        CLOUDY    63  48  59 W9        29.96S
BIG FORK       LGT RAIN  55  50  82 W5        29.96R
LONGVILLE      CLOUDY    57  45  62 W12G17    29.97S
GRAND RAPIDS   CLOUDY    55  45  68 NW15      29.98R
CRANE LAKE     CLOUDY    57  48  72 NW7G16    29.93S
ORR            CLOUDY    57  48  72 W6        29.91S
COOK           RAIN      54  48  82 W5        29.94S
WALKER         LGT RAIN  56  50  79 NW14      29.99R
$$
MNZ012-019>021-037-241900-
   Northeast Minnesota

CITY           SKY/WX    TMP DP  RH WIND       PRES   REMARKS
DULUTH         CLOUDY    58  45  62 W13       29.94R
6HR MIN TEMP:  52; 6HR MAX TEMP:  58;

ELY            CLOUDY    55  48  76 W10G16    29.91R
HIBBING        CLOUDY    58  45  62 NW10      29.94R
EVELETH        CLOUDY    60  44  54 W10       29.95R
DULUTH HARBOR  CLOUDY    61  46  59 W14       29.94S
TWO HARBORS    CLOUDY    63  52  67 NW9G16    29.90S
SILVER BAY     CLOUDY    59  52  77 W10G17    29.89S
GRAND MARAIS     N/A     54  54 100 CALM      29.88R
G MARAIS ARPRT LGT RAIN  52  48  87 NE5       29.89R
$$
MNZ029>031-032-039>041-046>048-054>057-064-241900-
   West Central Minnesota

CITY           SKY/WX    TMP DP  RH WIND       PRES   REMARKS
FERGUS FALLS   MIX PCPN  54  48  82 NW14G25   30.05R
WHEATON        PTSUNNY   61  43  51 W16G24    30.09S
MORRIS         MOSUNNY   63  43  48 NW15G25   30.05S
ALEXANDRIA     PTSUNNY   58  44  60 NW18G29   30.05R
ELBOW LAKE     CLOUDY    57  45  65 NW28      30.07R
WADENA         MOSUNNY   57  46  67 NW12G18   30.01S
GLENWOOD       MOSUNNY   57  45  62 NW17G24   30.05S
APPLETON       MOSUNNY   64  41  42 NW18G24   30.06S
BENSON         MOSUNNY   64  39  39 N20G25    30.07R
ORTONVILLE     PTSUNNY   63  43  48 NW18G25   30.08R
MADISON        MOSUNNY   66  45  45 NW17G25   30.08S
WILLMAR        FAIR      61  46  59 W17G23    30.06R
$$
MNZ033>034-036-042>043-049>051-058-059-241900-
   Central Minnesota

CITY           SKY/WX    TMP DP  RH WIND       PRES   REMARKS
ST CLOUD       PTSUNNY   62  42  47 W15G26    30.00S
6HR MIN TEMP:  53; 6HR MAX TEMP:  64;

SAUK CENTRE    LGT RAIN  52  49  89 W7        30.05R
PAYNESVILLE    LGT RAIN  53  44  72 NW14      30.05R
AITKIN         CLOUDY    55  45  67 NW7       29.97S
PINE RIVER     PTSUNNY   57  45  62 W6        30.01S
BRAINERD       CLOUDY    58  44  60 SW10      29.99S
STAPLES        PTSUNNY   55  39  54 W15       30.01R
LONG PRAIRIE   LGT RAIN  50  45  81 W15G21    30.05R
LITTLE FALLS   CLOUDY    55  41  58 W16G22    30.01S
LITCHFIELD     MOSUNNY   63  46  55 W16       30.02F THUNDER
BUFFALO        PTSUNNY   64  42  44 W13G18    30.02F
MAPLE LAKE     MOSUNNY   63  46  53 W12       30.02F
HUTCHINSON     CLOUDY    62  48  60 W17G25    30.04F
$$
MNZ037-044-045-052-053-241900-
   East Central Minnesota

CITY           SKY/WX    TMP DP  RH WIND       PRES   REMARKS
PRINCETON      MOSUNNY   61  45  55 NW6       30.00S
MORA           CLOUDY    59  39  47 W12G18    30.00S
CAMBRIDGE      CLOUDY    66  46  48 SW10G18   29.97F
RUSH CITY      CLOUDY    61  43  51 W10G16    29.99S HAZE
MOOSE LAKE     CLOUDY    61  45  55 NW7G16    29.95R
HINCKLEY       CLOUDY    61  43  51 W12G18    29.97S
CLOQUET        CLOUDY    59  43  55 W17       29.95S
MCGREGOR       CLOUDY    59  43  55 W10G18    29.97R
$$
MNZ071>073-080-081-089-090-097-098-241900-
   Southwest Minnesota

CITY           SKY/WX    TMP DP  RH WIND       PRES   REMARKS
MONTEVIDEO     MOSUNNY   64  43  45 N14G24    30.07S
GRANITE FALLS  PTSUNNY   63  45  51 NW15G25   30.08S
CANBY          PTSUNNY   64  42  44 W20G26    30.10R
MARSHALL       PTSUNNY   63  42  46 NW20G29   30.07R
REDWOOD FALLS  CLOUDY    62  44  51 NW16G22   30.05F
OLIVIA         PTSUNNY   61  43  51 NW16G23   30.05S
PIPESTONE      SUNNY     66  36  32 NW22G40   30.09S
WINDOM         CLOUDY    70  37  30 W22G33    30.05S
WORTHINGTON    CLOUDY    68  42  38 NW23G30   30.08R
JACKSON        PTSUNNY   66  37  34 W20G31    30.07S
TRACY          PTSUNNY   66  44  43 NW18G30   30.08R
SLAYTON        PTSUNNY   65  16  15 W26G37    30.08R HAZE
$$
MNZ065>067-074>077-082>085-091>093-241900-
   South Central Minnesota

CITY           SKY/WX    TMP DP  RH WIND       PRES   REMARKS
MANKATO        LGT RAIN  61  43  51 NW9       30.07R
NEW ULM        CLOUDY    64  45  48 NW12      30.04F
ST JAMES       LGT RAIN  61  48  63 NW8       30.06F
FAIRMONT       PTSUNNY   66  46  48 W12       30.05F
GLENCOE        CLOUDY    59  48  67 W12       30.04F
FARIBAULT      MOSUNNY   64  45  48 W14G24    30.06R
OWATONNA       PTSUNNY   63  43  48 W14       30.06R
WASECA         CLOUDY    63  43  48 W12G18    30.07S
ALBERT LEA     PTSUNNY   64  39  39 W9        30.07S
$$
MNZ078>079-086>088-094>096-241900-
   Southeast Minnesota

CITY           SKY/WX    TMP DP  RH WIND       PRES   REMARKS
ROCHESTER      MOSUNNY   64  44  48 NW18      30.06S
6HR MIN TEMP:  53; 6HR MAX TEMP:  66;

RED WING       PTSUNNY   64  36  34 W13G22    30.01S
STANTON        CLOUDY    62  41  45 W15G23    30.04R
DODGE CENTER   MOSUNNY   63  43  48 NW17G23   30.05S
WINONA         PTSUNNY   64  43  45 W12G21    30.03S
AUSTIN         MOSUNNY   64  43  45 NW15G23   30.06S
PRESTON        MOSUNNY   63  43  48 W15G26    30.06S
$$
ABBREVIATIONS USED IN REMARKS
   TC - TEMPERATURES IN CELSIUS
  WCI - WIND CHILL INDEX
   HX - HEAT INDEX
  VSB - VISIBILITY
$$




USA.gov is the U.S. government's official web portal to all federal, state and local government web resources and services.